TimeCDT,TemperatureF,Dew PointF,Humidity,Sea Level PressureIn,VisibilityMPH,Wind Direction,Wind SpeedMPH,Gust SpeedMPH,PrecipitationIn,Events,Conditions,WindDirDegrees,DateUTC
12:15 AM,64.4,55.4,73,30.14,10.0,Calm,Calm,-,N/A,,Overcast,0,2012-10-05 05:15:00
12:35 AM,64.4,55.4,73,30.15,10.0,NNW,5.8,-,N/A,,Overcast,330,2012-10-05 05:35:00
12:55 AM,62.6,53.6,72,30.14,10.0,NNW,4.6,-,N/A,,Overcast,340,2012-10-05 05:55:00
1:15 AM,62.6,53.6,72,30.14,10.0,NNW,6.9,-,N/A,,Overcast,330,2012-10-05 06:15:00
1:55 AM,60.8,51.8,72,30.14,10.0,North,6.9,-,N/A,,Mostly Cloudy,350,2012-10-05 06:55:00
2:15 AM,60.8,51.8,72,30.14,10.0,North,4.6,-,N/A,,Overcast,360,2012-10-05 07:15:00
2:35 AM,60.8,51.8,72,30.13,10.0,NNE,4.6,-,N/A,,Overcast,20,2012-10-05 07:35:00
2:55 AM,60.8,51.8,72,30.14,10.0,NNW,8.1,-,N/A,,Overcast,330,2012-10-05 07:55:00
3:15 AM,60.8,50.0,68,30.14,10.0,North,11.5,-,N/A,,Overcast,350,2012-10-05 08:15:00
3:35 AM,59.0,48.2,67,30.14,10.0,North,12.7,-,N/A,,Overcast,360,2012-10-05 08:35:00
3:55 AM,57.2,48.2,72,30.14,10.0,North,11.5,-,N/A,,Overcast,360,2012-10-05 08:55:00
4:15 AM,55.4,46.4,72,30.14,10.0,North,11.5,-,N/A,,Overcast,350,2012-10-05 09:15:00
4:55 AM,55.4,44.6,67,30.13,10.0,NE,5.8,-,N/A,,Overcast,40,2012-10-05 09:55:00
5:15 AM,55.4,44.6,67,30.12,10.0,NNE,9.2,-,N/A,,Overcast,30,2012-10-05 10:15:00
5:35 AM,55.4,44.6,67,30.13,10.0,North,5.8,-,N/A,,Overcast,10,2012-10-05 10:35:00
5:55 AM,55.4,44.6,67,30.13,10.0,NNE,6.9,-,N/A,,Overcast,30,2012-10-05 10:55:00
6:15 AM,55.4,44.6,67,30.12,10.0,NNE,8.1,-,N/A,,Overcast,30,2012-10-05 11:15:00
6:35 AM,55.4,44.6,67,30.11,10.0,ENE,6.9,-,N/A,,Overcast,60,2012-10-05 11:35:00
6:55 AM,55.4,44.6,67,30.12,10.0,NNE,6.9,-,N/A,Thunderstorm,Overcast,30,2012-10-05 11:55:00
7:15 AM,53.6,44.6,72,30.13,10.0,North,6.9,-,N/A,,Overcast,360,2012-10-05 12:15:00
7:35 AM,53.6,44.6,72,30.13,10.0,North,5.8,-,N/A,,Overcast,10,2012-10-05 12:35:00
7:55 AM,51.8,44.6,76,30.12,10.0,North,10.4,-,N/A,,Overcast,10,2012-10-05 12:55:00
8:15 AM,51.8,44.6,76,30.13,10.0,North,8.1,-,N/A,Thunderstorm,Overcast,10,2012-10-05 13:15:00
8:35 AM,51.8,44.6,76,30.14,10.0,North,6.9,-,0.02,Thunderstorm,Thunderstorm,10,2012-10-05 13:35:00
8:55 AM,51.8,44.6,76,30.14,10.0,NNE,9.2,-,0.02,Thunderstorm,Overcast,20,2012-10-05 13:55:00
9:15 AM,51.8,44.6,76,30.13,10.0,NNE,10.4,-,N/A,,Overcast,20,2012-10-05 14:15:00
9:35 AM,51.8,44.6,76,30.14,10.0,NNE,10.4,-,N/A,,Overcast,30,2012-10-05 14:35:00
10:35 AM,50.0,44.6,82,30.14,2.0,NNE,8.1,-,0.01,,Overcast,20,2012-10-05 15:35:00
10:55 AM,50.0,44.6,82,30.14,1.8,NNE,6.9,-,0.01,,Overcast,30,2012-10-05 15:55:00
11:35 AM,50.0,44.6,82,30.13,3.0,NNE,8.1,-,0.01,,Overcast,30,2012-10-05 16:35:00
12:35 PM,51.8,44.6,76,30.14,10.0,NE,5.8,-,0.01,,Overcast,40,2012-10-05 17:35:00
12:55 PM,51.8,44.6,76,30.14,7.0,North,10.4,-,0.01,,Overcast,10,2012-10-05 17:55:00
1:16 PM,51.8,44.6,76,30.14,5.0,North,9.2,-,N/A,,Overcast,10,2012-10-05 18:16:00
1:35 PM,51.8,44.6,76,30.14,4.0,NNE,10.4,-,N/A,,Overcast,20,2012-10-05 18:35:00
1:55 PM,50.0,44.6,82,30.14,3.0,North,13.8,-,N/A,,Overcast,360,2012-10-05 18:55:00
2:15 PM,50.0,44.6,82,30.15,3.0,North,13.8,-,N/A,,Overcast,360,2012-10-05 19:15:00
2:55 PM,50.0,44.6,82,30.14,10.0,NNE,11.5,-,N/A,,Overcast,20,2012-10-05 19:55:00
3:15 PM,50.0,44.6,82,30.15,4.0,North,10.4,-,N/A,,Overcast,360,2012-10-05 20:15:00
3:35 PM,48.2,42.8,82,30.16,5.0,North,12.7,-,N/A,,Overcast,10,2012-10-05 20:35:00
4:15 PM,48.2,42.8,82,30.16,10.0,North,15.0,21.9,N/A,,Overcast,10,2012-10-05 21:15:00
4:35 PM,48.2,42.8,82,30.16,10.0,NNE,15.0,19.6,N/A,,Overcast,20,2012-10-05 21:35:00
4:55 PM,48.2,42.8,82,30.16,10.0,NNE,13.8,19.6,N/A,,Overcast,20,2012-10-05 21:55:00
5:15 PM,48.2,42.8,82,30.16,8.0,North,15.0,20.7,N/A,,Overcast,10,2012-10-05 22:15:00
5:35 PM,48.2,41.0,76,30.17,10.0,NNE,15.0,21.9,N/A,,Overcast,30,2012-10-05 22:35:00
5:55 PM,46.4,39.2,76,30.18,10.0,NE,13.8,24.2,N/A,,Overcast,40,2012-10-05 22:55:00
6:16 PM,46.4,39.2,76,30.19,10.0,NE,13.8,20.7,N/A,,Overcast,40,2012-10-05 23:16:00
6:55 PM,46.4,37.4,71,30.19,10.0,ENE,10.4,17.3,N/A,,Overcast,60,2012-10-05 23:55:00
7:15 PM,46.4,37.4,71,30.20,10.0,NE,8.1,-,N/A,,Mostly Cloudy,50,2012-10-06 00:15:00
7:36 PM,44.6,37.4,76,30.21,10.0,NE,10.4,-,N/A,,Mostly Cloudy,50,2012-10-06 00:36:00
7:55 PM,44.6,37.4,76,30.22,10.0,NE,8.1,-,N/A,,Mostly Cloudy,50,2012-10-06 00:55:00
8:15 PM,46.4,37.4,71,30.23,10.0,NE,12.7,16.1,N/A,,Overcast,40,2012-10-06 01:15:00
8:35 PM,44.6,37.4,76,30.24,10.0,NE,13.8,18.4,N/A,,Overcast,40,2012-10-06 01:35:00
8:55 PM,44.6,37.4,76,30.24,10.0,NE,11.5,19.6,N/A,,Overcast,50,2012-10-06 01:55:00
9:35 PM,44.6,35.6,71,30.24,10.0,NE,6.9,-,N/A,,Mostly Cloudy,50,2012-10-06 02:35:00
9:55 PM,44.6,35.6,71,30.25,10.0,NE,8.1,-,N/A,,Mostly Cloudy,50,2012-10-06 02:55:00
10:35 PM,42.8,33.8,70,30.25,10.0,ENE,8.1,-,N/A,,Clear,60,2012-10-06 03:35:00
10:55 PM,42.8,33.8,70,30.25,10.0,ENE,8.1,-,N/A,,Clear,60,2012-10-06 03:55:00
11:15 PM,42.8,33.8,70,30.24,10.0,ENE,6.9,-,N/A,,Clear,60,2012-10-06 04:15:00
11:55 PM,41.0,33.8,76,30.25,10.0,NNE,6.9,-,N/A,,Clear,30,2012-10-06 04:55:00